Time,TemperatureF,DewpointF,PressureIn,WindDirection,WindDirectionDegrees,WindSpeedMPH,WindSpeedGustMPH,Humidity,HourlyPrecipIn,Conditions,Clouds,dailyrainin,SoftwareType,DateUTC
2013-06-04 00:05:00,67.8,66.0,29.93,WSW,249,0.0,3.0,95,0.00,,,0.00,weatherlink.com 1.10,2013-06-04 04:05:00,
2013-06-04 00:20:00,67.4,66.0,29.93,SSE,165,0.0,2.0,95,0.00,,,0.00,weatherlink.com 1.10,2013-06-04 04:20:00,
2013-06-04 00:35:00,67.2,66.0,29.93,SSE,165,0.0,1.0,95,0.00,,,0.00,weatherlink.com 1.10,2013-06-04 04:35:00,
2013-06-04 00:50:00,67.2,66.0,29.94,SSE,165,0.0,1.0,96,0.00,,,0.00,weatherlink.com 1.10,2013-06-04 04:50:00,
2013-06-04 01:05:00,67.2,66.0,29.93,SSE,165,0.0,1.0,96,0.00,,,0.00,weatherlink.com 1.10,2013-06-04 05:05:00,
2013-06-04 01:20:00,67.0,66.0,29.93,SSE,165,0.0,1.0,96,0.00,,,0.00,weatherlink.com 1.10,2013-06-04 05:20:00,
2013-06-04 01:35:00,66.8,66.0,29.92,SSE,165,1.0,2.0,96,0.00,,,0.00,weatherlink.com 1.10,2013-06-04 05:35:00,
2013-06-04 01:50:00,66.1,65.0,29.92,SSE,163,1.0,1.0,95,0.00,,,0.00,weatherlink.com 1.10,2013-06-04 05:50:00,
2013-06-04 02:05:00,66.0,65.0,29.92,SE,132,1.0,3.0,96,0.00,,,0.00,weatherlink.com 1.10,2013-06-04 06:05:00,
2013-06-04 02:20:00,65.7,64.0,29.92,SSE,166,0.0,2.0,95,0.00,,,0.00,weatherlink.com 1.10,2013-06-04 06:20:00,
2013-06-04 02:35:00,65.8,64.0,29.93,SSW,201,0.0,2.0,94,0.00,,,0.00,weatherlink.com 1.10,2013-06-04 06:35:00,
2013-06-04 02:50:00,65.8,64.0,29.92,South,184,2.0,2.0,93,0.00,,,0.00,weatherlink.com 1.10,2013-06-04 06:50:00,
2013-06-04 03:05:00,65.1,63.0,29.92,SSE,156,0.0,1.0,94,0.00,,,0.00,weatherlink.com 1.10,2013-06-04 07:05:00,
2013-06-04 03:20:00,64.5,63.0,29.92,SSE,156,0.0,1.0,95,0.00,,,0.00,weatherlink.com 1.10,2013-06-04 07:20:00,
2013-06-04 03:35:00,63.9,63.0,29.92,SSE,156,0.0,1.0,95,0.00,,,0.00,weatherlink.com 1.10,2013-06-04 07:35:00,
2013-06-04 03:50:00,63.6,63.0,29.91,SSE,156,0.0,1.0,96,0.00,,,0.00,weatherlink.com 1.10,2013-06-04 07:50:00,
2013-06-04 04:05:00,63.3,62.0,29.91,WSW,257,0.0,2.0,96,0.00,,,0.00,weatherlink.com 1.10,2013-06-04 08:05:00,
2013-06-04 04:20:00,62.9,62.0,29.91,West,259,0.0,1.0,96,0.00,,,0.00,weatherlink.com 1.10,2013-06-04 08:20:00,
2013-06-04 04:35:00,62.6,62.0,29.92,West,259,1.0,1.0,97,0.00,,,0.00,weatherlink.com 1.10,2013-06-04 08:35:00,
2013-06-04 04:50:00,62.5,62.0,29.92,West,259,0.0,1.0,97,0.00,,,0.00,weatherlink.com 1.10,2013-06-04 08:50:00,
2013-06-04 05:05:00,62.5,62.0,29.92,WSW,257,0.0,1.0,97,0.00,,,0.00,weatherlink.com 1.10,2013-06-04 09:05:00,
2013-06-04 05:20:00,62.7,62.0,29.93,West,259,0.0,1.0,97,0.00,,,0.00,weatherlink.com 1.10,2013-06-04 09:20:00,
2013-06-04 05:35:00,62.6,62.0,29.93,SSW,197,1.0,3.0,97,0.00,,,0.00,weatherlink.com 1.10,2013-06-04 09:35:00,
2013-06-04 05:50:00,62.3,62.0,29.94,South,169,0.0,1.0,97,0.00,,,0.00,weatherlink.com 1.10,2013-06-04 09:50:00,
2013-06-04 06:05:00,62.1,61.0,29.95,South,169,0.0,1.0,97,0.00,,,0.00,weatherlink.com 1.10,2013-06-04 10:05:00,
2013-06-04 06:20:00,61.7,61.0,29.95,South,169,0.0,1.0,97,0.00,,,0.00,weatherlink.com 1.10,2013-06-04 10:20:00,
2013-06-04 06:35:00,61.3,61.0,29.96,South,169,0.0,1.0,97,0.00,,,0.00,weatherlink.com 1.10,2013-06-04 10:35:00,
2013-06-04 06:50:00,61.5,61.0,29.96,South,169,0.0,1.0,97,0.00,,,0.00,weatherlink.com 1.10,2013-06-04 10:50:00,
2013-06-04 07:05:00,62.1,62.0,29.97,South,169,0.0,0.0,98,0.00,,,0.00,weatherlink.com 1.10,2013-06-04 11:05:00,
2013-06-04 07:20:00,63.1,63.0,29.97,West,280,0.0,1.0,98,0.00,,,0.00,weatherlink.com 1.10,2013-06-04 11:20:00,
2013-06-04 07:35:00,64.0,64.0,29.97,West,281,0.0,2.0,98,0.00,,,0.00,weatherlink.com 1.10,2013-06-04 11:35:00,
2013-06-04 07:50:00,64.4,64.0,29.98,WNW,283,0.0,0.0,98,0.00,,,0.00,weatherlink.com 1.10,2013-06-04 11:50:00,
2013-06-04 08:05:00,64.7,64.0,29.98,SE,124,1.0,1.0,97,0.00,,,0.00,weatherlink.com 1.10,2013-06-04 12:05:00,
2013-06-04 08:20:00,65.5,64.0,29.98,SW,236,0.0,1.0,96,0.00,,,0.00,weatherlink.com 1.10,2013-06-04 12:20:00,
2013-06-04 08:35:00,66.6,65.0,29.98,WSW,242,0.0,1.0,94,0.00,,,0.00,weatherlink.com 1.10,2013-06-04 12:35:00,
2013-06-04 08:50:00,67.7,66.0,29.99,SE,124,0.0,1.0,93,0.00,,,0.00,weatherlink.com 1.10,2013-06-04 12:50:00,
2013-06-04 09:06:00,68.3,66.0,30.00,SE,124,0.0,1.0,92,0.00,,,0.00,weatherlink.com 1.10,2013-06-04 13:06:00,
2013-06-04 09:21:00,68.9,67.0,30.00,North,356,1.0,1.0,92,0.00,,,0.00,weatherlink.com 1.10,2013-06-04 13:21:00,
2013-06-04 09:36:00,70.2,68.0,30.01,NW,314,1.0,3.0,91,0.00,,,0.00,weatherlink.com 1.10,2013-06-04 13:36:00,
2013-06-04 09:51:00,71.4,68.0,30.00,West,274,0.0,5.0,88,0.00,,,0.00,weatherlink.com 1.10,2013-06-04 13:51:00,
2013-06-04 10:21:00,73.5,70.0,30.00,SSE,165,0.0,5.0,87,0.00,,,0.00,weatherlink.com 1.10,2013-06-04 14:21:00,
2013-06-04 10:36:00,74.5,69.0,30.01,NW,309,0.0,3.0,83,0.00,,,0.00,weatherlink.com 1.10,2013-06-04 14:36:00,
2013-06-04 10:51:00,75.3,70.0,30.01,NW,304,1.0,2.0,82,0.00,,,0.00,weatherlink.com 1.10,2013-06-04 14:51:00,
2013-06-04 11:06:00,76.0,69.0,30.00,NNW,333,2.0,6.0,79,0.00,,,0.00,weatherlink.com 1.10,2013-06-04 15:06:00,
2013-06-04 11:21:00,77.5,69.0,30.00,NW,304,1.0,6.0,75,0.00,,,0.00,weatherlink.com 1.10,2013-06-04 15:21:00,
2013-06-04 11:36:00,78.0,70.0,30.01,North,6,1.0,6.0,76,0.00,,,0.00,weatherlink.com 1.10,2013-06-04 15:36:00,
2013-06-04 11:51:00,79.2,69.0,30.00,NNW,342,0.0,6.0,71,0.00,,,0.00,weatherlink.com 1.10,2013-06-04 15:51:00,
2013-06-04 12:06:00,79.8,72.0,30.00,WSW,249,0.0,5.0,76,0.00,,,0.00,weatherlink.com 1.10,2013-06-04 16:06:00,
2013-06-04 12:21:00,82.1,72.0,30.00,WSW,257,2.0,6.0,71,0.00,,,0.00,weatherlink.com 1.10,2013-06-04 16:21:00,
2013-06-04 12:36:00,81.6,69.0,30.01,WNW,294,1.0,6.0,66,0.00,,,0.00,weatherlink.com 1.10,2013-06-04 16:36:00,
2013-06-04 12:51:00,81.0,69.0,30.00,WNW,290,2.0,6.0,66,0.00,,,0.00,weatherlink.com 1.10,2013-06-04 16:51:00,
2013-06-04 13:06:00,80.3,69.0,30.00,WNW,291,3.0,4.0,68,0.00,,,0.00,weatherlink.com 1.10,2013-06-04 17:06:00,
2013-06-04 13:21:00,81.2,69.0,29.99,NW,314,2.0,4.0,66,0.00,,,0.00,weatherlink.com 1.10,2013-06-04 17:21:00,
2013-06-04 13:51:00,84.6,72.0,29.99,West,272,2.0,4.0,67,0.00,,,0.00,weatherlink.com 1.10,2013-06-04 17:51:00,
2013-06-04 14:06:00,81.7,69.0,29.99,WNW,297,2.0,6.0,65,0.00,,,0.00,weatherlink.com 1.10,2013-06-04 18:06:00,
2013-06-04 14:21:00,81.7,70.0,29.99,WSW,245,2.0,8.0,68,0.00,,,0.00,weatherlink.com 1.10,2013-06-04 18:21:00,
2013-06-04 14:36:00,82.7,71.0,29.98,WSW,252,0.0,4.0,68,0.00,,,0.00,weatherlink.com 1.10,2013-06-04 18:36:00,
2013-06-04 14:51:00,82.8,69.0,29.98,NW,314,5.0,5.0,64,0.00,,,0.00,weatherlink.com 1.10,2013-06-04 18:51:00,
2013-06-04 15:06:00,83.3,68.0,29.98,WNW,298,1.0,7.0,60,0.00,,,0.00,weatherlink.com 1.10,2013-06-04 19:06:00,
2013-06-04 15:22:00,83.7,69.0,29.98,SSW,200,0.0,7.0,62,0.00,,,0.00,weatherlink.com 1.10,2013-06-04 19:22:00,
2013-06-04 15:37:00,83.0,68.0,29.97,WNW,297,1.0,3.0,60,0.00,,,0.00,weatherlink.com 1.10,2013-06-04 19:37:00,
2013-06-04 15:51:00,82.6,70.0,29.97,WNW,287,0.0,4.0,65,0.00,,,0.00,weatherlink.com 1.10,2013-06-04 19:51:00,
2013-06-04 16:21:00,82.5,67.0,29.98,WNW,295,1.0,8.0,59,0.00,,,0.00,weatherlink.com 1.10,2013-06-04 20:21:00,
2013-06-04 16:36:00,83.2,68.0,29.98,SW,221,0.0,3.0,61,0.00,,,0.00,weatherlink.com 1.10,2013-06-04 20:36:00,
2013-06-04 16:52:00,82.3,69.0,29.97,WNW,287,1.0,6.0,64,0.00,,,0.00,weatherlink.com 1.10,2013-06-04 20:52:00,
2013-06-04 17:06:00,81.2,69.0,29.97,WNW,285,2.0,4.0,66,0.00,,,0.00,weatherlink.com 1.10,2013-06-04 21:06:00,
2013-06-04 17:21:00,81.7,68.0,29.97,NNW,342,5.0,5.0,63,0.00,,,0.00,weatherlink.com 1.10,2013-06-04 21:21:00,
2013-06-04 17:37:00,81.1,67.0,29.97,West,259,2.0,4.0,63,0.00,,,0.00,weatherlink.com 1.10,2013-06-04 21:37:00,
2013-06-04 17:51:00,80.6,68.0,29.96,NW,307,0.0,5.0,66,0.00,,,0.00,weatherlink.com 1.10,2013-06-04 21:51:00,
2013-06-04 18:07:00,80.3,67.0,29.96,West,259,2.0,6.0,63,0.00,,,0.00,weatherlink.com 1.10,2013-06-04 22:07:00,
2013-06-04 18:22:00,80.0,68.0,29.97,West,277,0.0,2.0,66,0.00,,,0.00,weatherlink.com 1.10,2013-06-04 22:22:00,
2013-06-04 18:37:00,79.8,69.0,29.97,West,279,1.0,2.0,69,0.00,,,0.00,weatherlink.com 1.10,2013-06-04 22:37:00,
2013-06-04 18:52:00,79.4,68.0,29.97,WNW,285,0.0,3.0,69,0.00,,,0.00,weatherlink.com 1.10,2013-06-04 22:52:00,
2013-06-04 19:07:00,78.8,69.0,29.97,NNW,335,0.0,2.0,71,0.00,,,0.00,weatherlink.com 1.10,2013-06-04 23:07:00,
2013-06-04 19:22:00,78.0,68.0,29.97,NNW,332,0.0,1.0,72,0.00,,,0.00,weatherlink.com 1.10,2013-06-04 23:22:00,
2013-06-04 19:37:00,76.7,67.0,29.98,NNW,332,0.0,0.0,73,0.00,,,0.00,weatherlink.com 1.10,2013-06-04 23:37:00,
2013-06-04 19:52:00,75.9,68.0,29.98,NNW,333,0.0,0.0,76,0.00,,,0.00,weatherlink.com 1.10,2013-06-04 23:52:00,
2013-06-04 20:07:00,74.7,67.0,29.99,NNW,332,0.0,0.0,78,0.00,,,0.00,weatherlink.com 1.10,2013-06-05 00:07:00,
2013-06-04 20:22:00,73.8,68.0,30.00,NNW,331,0.0,0.0,83,0.00,,,0.00,weatherlink.com 1.10,2013-06-05 00:22:00,
2013-06-04 20:37:00,73.0,67.0,30.00,NNW,331,0.0,0.0,82,0.00,,,0.00,weatherlink.com 1.10,2013-06-05 00:37:00,
2013-06-04 20:52:00,72.3,68.0,30.00,NNW,333,0.0,0.0,86,0.00,,,0.00,weatherlink.com 1.10,2013-06-05 00:52:00,
2013-06-04 21:07:00,71.2,67.0,30.00,NNW,332,0.0,0.0,87,0.00,,,0.00,weatherlink.com 1.10,2013-06-05 01:07:00,
2013-06-04 21:23:00,70.2,67.0,30.01,NNW,332,0.0,0.0,89,0.00,,,0.00,weatherlink.com 1.10,2013-06-05 01:23:00,
2013-06-04 21:37:00,69.8,67.0,30.01,NNW,331,0.0,0.0,90,0.00,,,0.00,weatherlink.com 1.10,2013-06-05 01:37:00,
2013-06-04 21:52:00,69.5,67.0,30.02,NNW,331,0.0,0.0,90,0.00,,,0.00,weatherlink.com 1.10,2013-06-05 01:52:00,
2013-06-04 22:07:00,69.7,67.0,30.02,NNW,332,0.0,0.0,90,0.00,,,0.00,weatherlink.com 1.10,2013-06-05 02:07:00,
2013-06-04 22:22:00,69.9,67.0,30.03,NNW,332,0.0,0.0,89,0.00,,,0.00,weatherlink.com 1.10,2013-06-05 02:22:00,
2013-06-04 22:37:00,70.4,67.0,30.03,WNW,283,0.0,2.0,88,0.00,,,0.00,weatherlink.com 1.10,2013-06-05 02:37:00,
2013-06-04 22:52:00,70.5,67.0,30.04,WNW,283,0.0,1.0,87,0.00,,,0.00,weatherlink.com 1.10,2013-06-05 02:52:00,
2013-06-04 23:07:00,70.7,67.0,30.04,WSW,249,0.0,1.0,87,0.00,,,0.00,weatherlink.com 1.10,2013-06-05 03:07:00,
2013-06-04 23:23:00,70.5,67.0,30.03,WSW,249,0.0,1.0,87,0.00,,,0.00,weatherlink.com 1.10,2013-06-05 03:23:00,
2013-06-04 23:37:00,70.1,67.0,30.03,WSW,249,0.0,0.0,88,0.00,,,0.00,weatherlink.com 1.10,2013-06-05 03:37:00,
2013-06-04 23:52:00,69.5,66.0,30.03,WSW,249,0.0,0.0,88,0.00,,,0.00,weatherlink.com 1.10,2013-06-05 03:52:00,